CDT,Max TemperatureF,Mean TemperatureF,Min TemperatureF,Max Dew PointF,MeanDew PointF,Min DewpointF,Max Humidity, Mean Humidity, Min Humidity, Max Sea Level PressureIn, Mean Sea Level PressureIn, Min Sea Level PressureIn, Max VisibilityMiles, Mean VisibilityMiles, Min VisibilityMiles, Max Wind SpeedMPH, Mean Wind SpeedMPH, Max Gust SpeedMPH,PrecipitationIn, CloudCover, Events, WindDirDegrees
2013-7-1,84,68,54,57,52,47,87,57,30,30.22,30.16,30.13,10,10,7,13,7,18,0.00,1,,2
2013-7-2,84,70,58,65,57,52,92,70,34,30.17,30.13,30.07,10,9,1,10,3,22,0.74,2,Rain,266
2013-7-3,84,72,60,64,59,51,94,68,32,30.09,30.03,29.96,10,9,4,12,2,16,0.00,0,,149
2013-7-4,86,72,57,61,57,54,89,64,34,30.00,29.95,29.89,10,10,2,17,8,23,0.00,0,,158
2013-7-5,87,74,61,65,61,57,87,64,40,29.92,29.88,29.83,10,9,1,21,9,28,0.00,1,Rain,158
2013-7-6,88,78,67,67,63,60,78,61,44,29.87,29.84,29.80,10,9,0,21,11,29,0.00,0,Rain,157
2013-7-7,93,81,70,75,67,60,80,61,41,29.93,29.86,29.83,10,10,4,15,9,23,0.00,1,,180
2013-7-8,91,82,73,75,72,68,93,77,46,29.98,29.94,29.90,10,8,2,12,5,22,0.11,2,Rain,149
2013-7-9,96,83,72,74,70,68,88,67,43,29.98,29.92,29.84,10,10,4,10,5,,0.00,1,,48
2013-7-10,83,76,68,68,64,59,89,69,46,30.12,30.06,29.99,10,10,5,14,6,17,0.00,0,,19
2013-7-11,87,74,62,65,61,57,91,65,39,30.12,30.05,29.97,10,10,7,17,5,23,0.00,0,,141
2013-7-12,91,78,66,70,65,59,81,63,48,30.01,29.96,29.91,10,10,10,23,11,30,0.00,1,,144
2013-7-13,91,82,72,73,68,63,75,64,46,29.97,29.94,29.91,10,10,10,21,12,28,0.00,0,,146
2013-7-14,87,78,68,68,62,55,80,61,34,30.16,30.06,29.98,10,10,10,16,11,24,0.00,2,Rain,129
2013-7-15,88,74,61,68,64,58,91,69,42,30.22,30.17,30.12,10,10,4,14,4,,0.00,1,,126
2013-7-16,90,78,66,69,65,60,91,67,39,30.27,30.23,30.18,10,10,7,14,5,17,0.00,1,,171
2013-7-17,92,80,68,71,67,65,91,67,40,30.31,30.25,30.17,10,10,5,12,3,16,0.00,1,,167
2013-7-18,93,82,70,70,67,64,89,64,39,30.18,30.07,29.94,10,10,10,17,8,25,0.00,1,,189
2013-7-19,93,82,71,69,65,55,81,57,29,29.96,29.93,29.90,10,10,10,15,9,22,0.00,1,,272
2013-7-20,88,75,62,66,62,57,90,65,36,30.02,29.94,29.87,10,10,10,14,5,,0.00,0,,61
2013-7-21,91,79,67,72,66,63,92,69,42,29.94,29.85,29.78,10,10,10,13,4,23,0.00,2,,198
2013-7-22,96,81,66,73,67,61,92,66,35,29.87,29.80,29.76,10,10,7,14,5,18,0.00,1,,189
2013-7-23,81,72,64,66,63,61,90,73,52,30.03,29.94,29.86,10,10,5,17,7,23,0.13,1,Rain,27
2013-7-24,83,70,58,68,61,56,93,73,47,30.10,30.06,30.01,10,10,7,8,4,,0.00,0,,23
2013-7-25,83,74,66,67,65,62,90,76,51,30.06,30.03,29.99,10,10,10,15,5,23,0.01,4,Rain,168
2013-7-26,76,66,57,66,58,52,94,70,44,30.14,30.08,29.99,10,10,4,20,8,26,0.00,0,,332
2013-7-27,73,62,52,53,49,45,91,64,39,30.16,30.10,30.04,10,10,10,10,6,18,0.00,2,,340
2013-7-28,77,62,46,58,49,44,90,64,34,30.09,30.06,30.02,10,10,10,6,2,,0.00,0,,57
2013-7-29,66,62,58,64,59,53,94,87,75,30.07,30.05,30.01,10,8,1,16,6,20,0.17,7,Rain,114
2013-7-30,76,70,65,67,65,64,95,85,69,30.13,30.08,30.02,10,6,0,10,4,,0.00,8,Fog,13
2013-7-31,84,72,60,69,64,59,95,77,51,30.16,30.11,30.06,10,8,2,7,1,,0.03,1,,310